Date String (YYYY-MM-DD hh:mm:ss) UTC,Instrument flags,absolute air pressure of the measurement (hPa),sample flow rate (lpm),inlet stack bypass flow (lpm),air temperature of the measurement (°C),ambient temperature measured by the external sensor (°C),aerosol sample conditioner tube jacket temperature (°C),OPC LED temperature (°C),internal box temperature (°C),relative humidity of the measurement (%),span deviation,mass concentration of particles derived from Lorenz-Mie calculation of OPC scattering (μg/m³),mass concentration of particles derived from Lorenz-Mie calculation of OPC scattering (μg/m³),mass concentration of particles derived from Lorenz-Mie calculation of OPC scattering (μg/m³)
DateTimeUTC,F1_M11,P_M11,Q1_M11,Q2_M11,T1_M11,T2_M11,T3_M11,T4_M11,T5_M11,U1_M11,ZSPAN_M11,X2_M11,X0_M11,X1_M11
2023-12-12 00:00:00,SystemResetWarning,0831.5,5.00,000.00,025.6,024.6,000.0,033.9,026.9,14.0,0000.0,0004.82,0012.20,0004.08
2023-12-12 00:01:00,SystemResetWarning,0831.6,5.01,000.00,025.6,024.6,000.0,033.9,026.9,14.0,0000.0,0004.75,0012.45,0004.01
2023-12-12 00:02:00,SystemResetWarning,0831.6,5.00,000.00,025.6,024.6,000.0,033.9,026.9,14.0,0000.0,0004.74,0012.89,0003.95
2023-12-12 00:03:00,SystemResetWarning,0831.6,5.00,000.00,025.6,024.6,000.0,033.9,026.9,14.0,0000.0,0004.69,0012.99,0003.88
2023-12-12 00:04:00,SystemResetWarning,0831.6,4.99,000.00,025.6,024.6,000.0,033.9,026.9,14.1,0000.0,0004.61,0013.93,0003.80
2023-12-12 00:05:00,SystemResetWarning,0831.6,5.00,000.00,025.6,024.5,000.0,033.9,026.9,14.2,0000.0,0004.54,0014.87,0003.74
2023-12-12 00:06:00,SystemResetWarning,0831.6,5.00,000.00,025.6,024.6,000.0,033.9,026.9,14.2,0000.0,0004.49,0015.13,0003.68
2023-12-12 00:07:00,SystemResetWarning,0831.7,5.00,000.00,025.6,024.5,000.0,033.9,026.9,14.2,0000.0,0004.43,0015.06,0003.64
2023-12-12 00:08:00,SystemResetWarning,0831.7,5.00,000.00,025.6,024.5,000.0,033.9,026.9,14.3,0000.0,0004.40,0014.68,0003.61
2023-12-12 00:09:00,SystemResetWarning,0831.7,5.00,000.00,025.6,024.5,000.0,033.9,026.9,14.2,0000.0,0004.38,0013.78,0003.58
2023-12-12 00:10:00,SystemResetWarning,0831.7,5.00,000.00,025.6,024.5,000.0,033.9,026.9,14.4,0000.0,0004.36,0012.81,0003.55
2023-12-12 00:11:00,SystemResetWarning,0832.0,4.99,000.00,025.6,024.5,000.0,033.9,026.9,14.5,0000.0,0004.36,0012.03,0003.56
2023-12-12 00:12:00,SystemResetWarning,0832.2,5.00,000.00,025.6,024.5,000.0,033.9,026.9,14.6,0000.0,0004.37,0011.71,0003.55
2023-12-12 00:13:00,SystemResetWarning,0831.9,5.01,000.00,025.6,024.5,000.0,033.9,026.9,14.7,0000.0,0004.30,0011.18,0003.54
2023-12-12 00:14:00,SystemResetWarning,0831.9,5.00,000.00,025.6,024.5,000.0,033.9,026.9,14.7,0000.0,0004.26,0011.23,0003.55
2023-12-12 00:15:00,SystemResetWarning,0832.0,5.01,000.00,025.6,024.5,000.0,033.9,026.9,14.7,0000.0,0004.27,0010.66,0003.56
2023-12-12 00:16:00,SystemResetWarning,0832.0,5.00,000.00,025.6,024.5,000.0,033.9,026.8,14.7,0000.0,0004.25,0010.11,0003.54
2023-12-12 00:17:00,SystemResetWarning,0832.0,4.99,000.00,025.6,024.5,000.0,033.9,026.8,14.8,0000.0,0004.20,0010.00,0003.51
2023-12-12 00:18:00,SystemResetWarning,0832.0,4.99,000.00,025.5,024.5,000.0,033.9,026.9,14.8,0000.0,0004.14,0009.69,0003.49
2023-12-12 00:19:00,SystemResetWarning,0832.0,5.00,000.00,025.5,024.5,000.0,033.9,026.9,14.7,0000.0,0004.09,0009.59,0003.46
2023-12-12 00:20:00,SystemResetWarning,0832.0,5.01,000.00,025.5,024.5,000.0,033.9,026.8,14.8,0000.0,0004.02,0009.46,0003.43
2023-12-12 00:21:00,SystemResetWarning,0832.1,5.01,000.00,025.5,024.4,000.0,033.8,026.8,14.8,0000.0,0003.97,0009.27,0003.39
2023-12-12 00:22:00,SystemResetWarning,0832.1,4.99,000.00,025.5,024.4,000.0,033.8,026.8,14.6,0000.0,0003.91,0009.17,0003.34
2023-12-12 00:23:00,SystemResetWarning,0832.2,5.00,000.00,025.5,024.4,000.0,033.8,026.8,14.4,0000.0,0003.82,0009.22,0003.29
2023-12-12 00:24:00,SystemResetWarning,0832.1,5.00,000.00,025.5,024.3,000.0,033.8,026.8,14.3,0000.0,0003.77,0009.31,0003.22
2023-12-12 00:25:00,SystemResetWarning,0832.2,5.00,000.00,025.4,024.3,000.0,033.8,026.7,13.9,0000.0,0003.71,0009.52,0003.14
2023-12-12 00:26:00,SystemResetWarning,0832.2,5.00,000.00,025.4,024.3,000.0,033.8,026.7,14.3,0000.0,0003.63,0010.00,0003.04
2023-12-12 00:27:00,SystemResetWarning,0832.2,5.00,000.00,025.4,024.3,000.0,033.8,026.7,14.7,0000.0,0003.54,0009.49,0002.92
2023-12-12 00:28:00,SystemResetWarning,0832.2,5.02,000.00,025.4,024.2,000.0,033.8,026.7,14.6,0000.0,0003.46,0009.23,0002.86
2023-12-12 00:29:00,SystemResetWarning,0832.2,5.00,000.00,025.4,024.2,000.0,033.8,026.7,14.6,0000.0,0003.42,0009.47,0002.77
2023-12-12 00:30:00,SystemResetWarning,0832.3,4.99,000.00,025.4,024.2,000.0,033.8,026.7,14.6,0000.0,0003.35,0009.87,0002.67
2023-12-12 00:31:00,SystemResetWarning,0832.3,4.99,000.00,025.3,024.2,000.0,033.8,026.6,14.7,0000.0,0003.28,0009.74,0002.56
2023-12-12 00:32:00,SystemResetWarning,0832.3,4.99,000.00,025.3,024.2,000.0,033.8,026.6,14.9,0000.0,0003.22,0009.73,0002.48
2023-12-12 00:33:00,SystemResetWarning,0832.3,5.02,000.00,025.3,024.2,000.0,033.7,026.6,15.0,0000.0,0003.16,0009.61,0002.41
2023-12-12 00:34:00,SystemResetWarning,0832.3,5.00,000.00,025.3,024.2,000.0,033.7,026.6,15.1,0000.0,0003.15,0009.25,0002.34
2023-12-12 00:35:00,SystemResetWarning,0832.3,5.00,000.00,025.3,024.2,000.0,033.7,026.6,15.1,0000.0,0003.10,0009.05,0002.29
2023-12-12 00:36:00,SystemResetWarning,0832.4,5.00,000.00,025.3,024.2,000.0,033.7,026.6,14.6,0000.0,0003.06,0009.00,0002.24
2023-12-12 00:37:00,SystemResetWarning,0832.4,5.00,000.00,025.3,024.2,000.0,033.7,026.6,14.5,0000.0,0002.94,0007.84,0002.16
2023-12-12 00:38:00,SystemResetWarning,0832.4,5.00,000.00,025.3,024.2,000.0,033.7,026.6,14.8,0000.0,0002.80,0007.55,0002.06
2023-12-12 00:39:00,SystemResetWarning,0832.5,5.00,000.00,025.3,024.2,000.0,033.7,026.6,15.0,0000.0,0002.79,0007.47,0001.99
2023-12-12 00:40:00,SystemResetWarning,0832.5,5.00,000.00,025.3,024.2,000.0,033.7,026.6,14.9,0000.0,0002.76,0006.78,0001.93
2023-12-12 00:41:00,SystemResetWarning,0832.5,5.00,000.00,025.3,024.1,000.0,033.7,026.6,15.0,0000.0,0002.69,0005.80,0001.88
2023-12-12 00:42:00,SystemResetWarning,0832.5,5.00,000.00,025.3,024.1,000.0,033.7,026.6,15.1,0000.0,0002.73,0006.08,0001.87
2023-12-12 00:43:00,SystemResetWarning,0832.5,5.00,000.00,025.3,024.2,000.0,033.7,026.6,14.8,0000.0,0002.80,0006.52,0001.87
2023-12-12 00:44:00,SystemResetWarning,0832.5,5.01,000.00,025.3,024.2,000.0,033.7,026.6,14.4,0000.0,0002.75,0006.38,0001.83
2023-12-12 00:45:00,SystemResetWarning,0832.5,4.99,000.00,025.3,024.2,000.0,033.7,026.6,14.6,0000.0,0002.67,0006.33,0001.77
2023-12-12 00:46:00,SystemResetWarning,0832.5,4.99,000.00,025.3,024.2,000.0,033.6,026.6,14.7,0000.0,0002.67,0006.54,0001.73
2023-12-12 00:47:00,SystemResetWarning,0832.5,5.00,000.00,025.3,024.2,000.0,033.6,026.6,14.5,0000.0,0002.66,0005.71,0001.70
2023-12-12 00:48:00,SystemResetWarning,0832.5,5.00,000.00,025.3,024.3,000.0,033.6,026.7,14.5,0000.0,0002.70,0006.00,0001.71
2023-12-12 00:49:00,SystemResetWarning,0832.6,5.01,000.00,025.3,024.3,000.0,033.6,026.7,14.6,0000.0,0002.78,0007.11,0001.72
2023-12-12 00:50:00,SystemResetWarning,0832.6,5.01,000.00,025.3,024.3,000.0,033.6,026.6,14.7,0000.0,0002.76,0007.86,0001.70
2023-12-12 00:51:00,SystemResetWarning,0832.6,5.00,000.00,025.3,024.3,000.0,033.6,026.6,14.6,0000.0,0002.81,0007.98,0001.69
2023-12-12 00:52:00,SystemResetWarning,0832.6,4.99,000.00,025.3,024.3,000.0,033.6,026.6,14.6,0000.0,0002.83,0008.46,0001.66
2023-12-12 00:53:00,SystemResetWarning,0832.6,5.00,000.00,025.3,024.3,000.0,033.6,026.7,14.8,0000.0,0002.74,0008.29,0001.62
2023-12-12 00:54:00,SystemResetWarning,0832.7,5.00,000.00,025.3,024.3,000.0,033.6,026.6,15.5,0000.0,0002.63,0007.95,0001.55
2023-12-12 00:55:00,SystemResetWarning,0832.6,4.99,000.00,025.3,024.3,000.0,033.6,026.6,16.0,0000.0,0002.65,0008.02,0001.51
2023-12-12 00:56:00,SystemResetWarning,0832.6,5.00,000.00,025.3,024.2,000.0,033.6,026.6,15.8,0000.0,0002.63,0007.95,0001.51
2023-12-12 00:57:00,SystemResetWarning,0832.7,5.01,000.00,025.3,024.2,000.0,033.6,026.6,16.1,0000.0,0002.61,0007.83,0001.52
2023-12-12 00:58:00,SystemResetWarning,0832.6,5.00,000.00,025.3,024.1,000.0,033.6,026.6,16.5,0000.0,0002.57,0007.80,0001.53
2023-12-12 00:59:00,SystemResetWarning,0832.6,5.01,000.00,025.2,024.1,000.0,033.6,026.6,16.9,0000.0,0002.55,0007.91,0001.55
